Hourly Data Report for November 18, 2021

MOUNT FOREST (AUT)
ONTARIO
Current Station Operator: ECCC - MSC

43°59'00.000" N
80°45'00.000" W
414.50 m
6145504
71631
WLS

Download Data

Hourly Data (November 2021)
Hourly Data Report for November 18, 2021
TIME
LST
Temp Definition
°C
Dew Point Definition
°C
Rel Hum Definition
%
Precip. Amount Definition
mm

Wind Dir Definition
10's deg

Wind Spd Definition
km/h
Visibility Definition
km
Stn Press Definition
kPa
Hmdx Definition


Wind Chill Definition


Weather Definition


00:00 10.0 9.3 96 1.0 29 13   95.96     LegendNANA
01:00 9.0 8.4 96 0.3 28 12   95.98     LegendNANA
02:00 7.6 6.1 91 0.0 27 13   96.09     LegendNANA
03:00 6.4 4.8 89 0.0 27 12   96.10     LegendNANA
04:00 5.6 3.7 87 0.0 26 13   96.12     LegendNANA
05:00 5.4 3.6 88 0.0 25 14   96.21     LegendNANA
06:00 4.7 2.2 84 0.0 26 9   96.18     LegendNANA
07:00 4.3 1.2 80 0.0 27 13   96.18     LegendNANA
08:00 3.7 0.5 80 0.0 28 12   96.22     LegendNANA
09:00 2.9 -1.2 75 0.0 27 22   96.33     LegendNANA
10:00 2.3 -2.2 72 0.0 28 18   96.35     LegendNANA
11:00 2.9 -1.5 73 0.0 27 14   96.36     LegendNANA
12:00 2.2 -2.7 70 0.0 25 23   96.33     LegendNANA
13:00 2.1 -3.0 69 0.0 27 20   96.33     LegendNANA
14:00 2.4 -3.9 63 0.0 27 18   96.31     LegendNANA
15:00 2.0 -2.9 70 0.0 25 16   96.32     LegendNANA
16:00 1.3 -1.5 82 0.1 25 12   96.37     LegendNANA
17:00 0.4 -0.3 95 0.5 27 16   96.47     LegendNANA
18:00 0.6 -3.3 75 0.0 26 18   96.54     LegendNANA
19:00 0.6 -4.4 69 0.0 26 15   96.61     LegendNANA
20:00 -0.4 -3.3 81 0.2 26 14   96.64   -5 LegendNANA
21:00 -0.9 -2.2 91 0.0 27 17   96.69   -6 LegendNANA
22:00 -1.2 -1.8 95 1.0 26 13   96.71   -5 LegendNANA
23:00 -1.4 -2.1 95 0.4 25 13   96.72   -6 LegendNANA

Notes on Data Quality.

Legend

  • E = Estimated
  • M = Missing
  • NA = Not Available*
  • [empty] = Indicates an unobserved value
Date modified: